Flag for U.S.A. Weather past 2 weeks in Allentown, Pennsylvania, U.S.A.

Now
77 °F

Overcast.


Feels Like: 79 °F
Forecast: 65 / 79 °F
Wind: 5 mph from Southwest

Location: Lehigh Valley International Airport

Current Time: Aug 20, 2014 at 9:09:06 PM

Latest Report: Aug 20, 2014 at 8:51 PM


Visibility: 10 mi

Pressure: 29.98 "Hg

Humidity: 64%

Dew point: 64 °F

Location of AllentownLocation

Historic Weather in Allentown — Graph

°F

Allentown temperature yesterday

Maximum temperature yesterday: 85 °F (at 2:51 PM)
Minimum temperature yesterday: 55 °F (at 4:51 AM)
Average temperature yesterday: 71 °F

Past Weeks' High & Low Weather Summary

 TemperatureHumidityPressure
High87 °F (Aug 10, 3:51 PM)93% (Aug 9, 4:51 AM)30.16 "Hg (Aug 9, 4:51 AM)
Low51 °F (Aug 16, 4:51 AM)29% (Aug 9, 2:51 PM)29.70 "Hg (Aug 13, 2:51 PM)
Average70 °F63%29.96 "Hg
* Reported Aug 5 7:51 PM — Aug 20 7:51 PM, Allentown, Weather by CustomWeather, © 2014

Note: Actual official high and low records may vary slightly from our data, if they occured in-between our weather recording intervals... More about our weather records

Advertising

Allentown weather history for previous 24 hours

 ConditionsComfort  
Time TempWeatherWind HumidityBarometerVisibility
7:51 PM
Aug 20
79 °FOvercast.6 mph58%29.97 "Hg10 mi
6:51 PM80 °FBroken clouds.9 mph56%29.97 "Hg10 mi
5:51 PM81 °FPartly sunny.8 mph56%29.96 "Hg10 mi
4:51 PM83 °FPartly sunny.7 mph53%29.96 "Hg10 mi
3:51 PM83 °FBroken clouds.7 mph50%29.96 "Hg10 mi
2:51 PM83 °FMostly cloudy.6 mph50%29.95 "Hg10 mi
1:51 PM82 °FMostly cloudy.6 mph51%29.96 "Hg10 mi
12:51 PM81 °FPassing clouds.8 mph53%29.98 "Hg10 mi
11:51 AM79 °FScattered clouds.No wind56%30.00 "Hg10 mi
10:51 AM79 °FPassing clouds.6 mph58%30.00 "Hg10 mi
9:51 AM76 °FSunny.5 mph67%30.00 "Hg10 mi
8:51 AM73 °FPartly sunny.3 mph71%29.98 "Hg10 mi
7:51 AM69 °FScattered clouds.No wind84%29.98 "Hg10 mi
6:51 AM65 °FPassing clouds.3 mph87%29.96 "Hg10 mi
5:51 AM66 °FPassing clouds.No wind87%29.94 "Hg10 mi
4:51 AM66 °FClear.No wind87%29.93 "Hg10 mi
3:51 AM69 °FMostly cloudy.3 mph81%29.94 "Hg10 mi
2:51 AM71 °FPartly cloudy.3 mph76%29.93 "Hg10 mi
1:51 AM72 °FOvercast.No wind73%29.93 "Hg10 mi
12:51 AM73 °FClear.5 mph71%29.93 "Hg10 mi
11:51 PM
Aug 19
74 °FMostly cloudy.6 mph67%29.92 "Hg10 mi
10:51 PM76 °FOvercast.3 mph62%29.91 "Hg10 mi
9:51 PM77 °FPassing clouds.3 mph58%29.89 "Hg10 mi
Weather by CustomWeather, © 2014

See weather overviewHow to use our weather pages